Location: Pandora
(40.9481°N, 83.9611°W)
Time: 17:14:49
(UTC-04:00)

ISS - Pass Details

Date: 07 October 2021
Orbit: 417 x 423 km, 51.6° (Epoch: 18 October)

Event Time Altitude Azimuth Distance (km) Brightness Sun altitude
Rises 20:36:48 0° 288° (WNW) 2,360 1.7 -17.7°
Reaches altitude 10° 20:39:44 10° 260° (W) 1,493 0.1 -18.2°
Maximum altitude 20:41:24 13° 230° (SW) 1,310 -0.7 -18.5°
Drops below altitude 10° 20:43:04 10° 200° (SSW) 1,489 -0.8 -18.8°
Enters shadow 20:44:34 - 183° (S) 1,875 -0.5 -19.1°
